• In Hungary
  • List of Countries
  • For 7 days
  • Water Temperature
  • Satellite Maps
  • Weather Map
  • News
  • Weather Widgets
  • user-avatar
    Login

    Hourly Weather David

    Today, 25 September, Monday

    Time Temperature Precipitation Wind Pressure Humidity
    00:00 +27°C° 0.9 mm 2 mps 754 mmHg 89%
    01:00 +27°C° 0.9 mm 2 mps 753 mmHg 89%
    02:00 +27°C° 0.2 mm 2 mps 753 mmHg 89%
    03:00 +27°C° 0.2 mm 2 mps 753 mmHg 89%
    04:00 +27°C° 0.2 mm 2 mps 752 mmHg 89%
    05:00 +27°C° 0.1 mm 2 mps 753 mmHg 89%
    06:00 +27°C° 0.1 mm 2 mps 753 mmHg 88%
    07:00 +27°C° 0.1 mm 2 mps 753 mmHg 87%
    08:00 +28°C° 0.1 mm 2 mps 753 mmHg 82%
    09:00 +29°C° 0.1 mm 1 mps 754 mmHg 77%
    10:00 +31°C° 0.1 mm 1 mps 754 mmHg 72%
    11:00 +31°C° 0.2 mm 2 mps 754 mmHg 69%
    12:00 +32°C° 0.2 mm 2 mps 753 mmHg 65%
    13:00 +34°C° 0.2 mm 2 mps 753 mmHg 62%
    14:00 +33°C° 0.9 mm 3 mps 752 mmHg 67%
    15:00 +33°C° 0.9 mm 3 mps 752 mmHg 72%
    16:00 +31°C° 0.9 mm 3 mps 751 mmHg 77%
    17:00 +30°C° 1.9 mm 2 mps 752 mmHg 82%
    18:00 +29°C° 1.9 mm 2 mps 752 mmHg 87%
    19:00 +28°C° 1.9 mm 2 mps 752 mmHg 91%
    20:00 +28°C° 1.3 mm 2 mps 753 mmHg 91%
    21:00 +27°C° 1.3 mm 2 mps 753 mmHg 92%
    22:00 +27°C° 1.3 mm 2 mps 754 mmHg 92%
    23:00 +27°C° 0.9 mm 2 mps 753 mmHg 92%

    Tomorrow, 26 September, Tuesday

    Time Temperature Precipitation Wind Pressure Humidity
    00:00 +27°C° 0.9 mm 2 mps 753 mmHg 91%
    01:00 +27°C° 0.9 mm 2 mps 753 mmHg 91%
    02:00 +27°C° 0.9 mm 2 mps 753 mmHg 91%
    03:00 +27°C° 0.9 mm 2 mps 752 mmHg 91%
    04:00 +27°C° 0.9 mm 2 mps 752 mmHg 90%
    05:00 +27°C° 0.7 mm 1 mps 752 mmHg 90%
    06:00 +27°C° 0.7 mm 1 mps 752 mmHg 89%
    07:00 +27°C° 0.7 mm 1 mps 753 mmHg 88%
    08:00 +28°C° 0.8 mm 1 mps 753 mmHg 83%
    09:00 +30°C° 0.8 mm 2 mps 754 mmHg 78%
    10:00 +31°C° 0.8 mm 2 mps 754 mmHg 73%
    11:00 +30°C° 1.5 mm 2 mps 754 mmHg 75%
    12:00 +30°C° 1.5 mm 3 mps 754 mmHg 78%
    13:00 +30°C° 1.5 mm 3 mps 753 mmHg 80%
    14:00 +30°C° 1.6 mm 3 mps 753 mmHg 81%
    15:00 +29°C° 1.6 mm 3 mps 752 mmHg 82%
    16:00 +29°C° 1.6 mm 3 mps 751 mmHg 83%
    17:00 +28°C° 0.9 mm 2 mps 752 mmHg 86%
    18:00 +28°C° 0.9 mm 2 mps 752 mmHg 89%
    19:00 +27°C° 0.9 mm 2 mps 752 mmHg 92%
    20:00 +27°C° 0.6 mm 1 mps 753 mmHg 93%
    21:00 +27°C° 0.6 mm 1 mps 753 mmHg 93%
    22:00 +27°C° 0.6 mm 1 mps 754 mmHg 93%
    23:00 +27°C° 0.8 mm 1 mps 753 mmHg 93%

    Day after tomorrow, 27 September, Wednesday

    Time Temperature Precipitation Wind Pressure Humidity
    00:00 +27°C° 0.8 mm 1 mps 753 mmHg 94%
    01:00 +26°C° 0.8 mm 1 mps 753 mmHg 94%
    02:00 +26°C° 0.5 mm 1 mps 753 mmHg 93%
    03:00 +26°C° 0.5 mm 1 mps 752 mmHg 92%
    04:00 +26°C° 0.5 mm 1 mps 752 mmHg 92%
    05:00 +26°C° 0.3 mm 1 mps 752 mmHg 91%
    06:00 +26°C° 0.3 mm 1 mps 752 mmHg 90%
    07:00 +27°C° 0.3 mm 1 mps 752 mmHg 90%
    08:00 +28°C° 0.2 mm 1 mps 753 mmHg 85%
    09:00 +29°C° 0.2 mm 1 mps 753 mmHg 81%
    10:00 +30°C° 0.2 mm 1 mps 754 mmHg 77%
    11:00 +30°C° 0.2 mm 2 mps 753 mmHg 75%
    12:00 +31°C° 0.2 mm 2 mps 753 mmHg 73%
    13:00 +32°C° 0.2 mm 2 mps 752 mmHg 71%
    14:00 +31°C° 0.7 mm 2 mps 752 mmHg 73%
    15:00 +31°C° 0.7 mm 3 mps 751 mmHg 76%
    16:00 +30°C° 0.7 mm 3 mps 751 mmHg 78%
    17:00 +29°C° 0.6 mm 2 mps 751 mmHg 83%
    18:00 +28°C° 0.6 mm 2 mps 752 mmHg 87%
    19:00 +27°C° 0.6 mm 2 mps 752 mmHg 91%
    20:00 +27°C° 0.5 mm 2 mps 753 mmHg 91%
    21:00 +27°C° 0.5 mm 1 mps 753 mmHg 91%
    22:00 +27°C° 0.5 mm 1 mps 754 mmHg 90%
    23:00 +27°C° 0.4 mm 1 mps 753 mmHg 90%

    28 September, Thursday

    Time Temperature Precipitation Wind Pressure Humidity
    00:00 +27°C° 0.4 mm 1 mps 753 mmHg 89%
    01:00 +27°C° 0.4 mm 1 mps 753 mmHg 88%
    02:00 +27°C° 0.4 mm 1 mps 752 mmHg 88%
    03:00 +26°C° 0.4 mm 1 mps 752 mmHg 87%
    04:00 +26°C° 0.4 mm 1 mps 752 mmHg 87%
    05:00 +27°C° 0.2 mm 1 mps 752 mmHg 86%
    06:00 +27°C° 0.2 mm 1 mps 753 mmHg 86%
    07:00 +27°C° 0.2 mm 1 mps 753 mmHg 86%
    08:00 +28°C° 0.4 mm 1 mps 753 mmHg 81%
    09:00 +30°C° 0.4 mm 1 mps 754 mmHg 76%
    10:00 +31°C° 0.4 mm 1 mps 754 mmHg 72%
    11:00 +31°C° 0.4 mm 2 mps 754 mmHg 72%
    12:00 +33°C° 0.4 mm 3 mps 753 mmHg 72%
    13:00 +33°C° 0.4 mm 3 mps 752 mmHg 72%
    14:00 +31°C° 1.2 mm 3 mps 752 mmHg 75%
    15:00 +30°C° 1.2 mm 3 mps 751 mmHg 79%
    16:00 +30°C° 1.2 mm 4 mps 751 mmHg 82%
    17:00 +29°C° 1.1 mm 3 mps 751 mmHg 86%
    18:00 +28°C° 1.1 mm 3 mps 752 mmHg 90%
    19:00 +27°C° 1.1 mm 2 mps 752 mmHg 93%
    20:00 +27°C° 0.6 mm 2 mps 753 mmHg 93%
    21:00 +27°C° 0.6 mm 2 mps 753 mmHg 93%
    22:00 +27°C° 0.6 mm 2 mps 754 mmHg 94%
    23:00 +27°C° 0.6 mm 2 mps 754 mmHg 94%

    29 September, Friday

    Time Temperature Precipitation Wind Pressure Humidity
    00:00 +27°C° 0.6 mm 2 mps 753 mmHg 94%
    01:00 +27°C° 0.6 mm 2 mps 753 mmHg 94%
    02:00 +27°C° 0.8 mm 1 mps 753 mmHg 93%
    03:00 +27°C° 0.8 mm 1 mps 752 mmHg 93%
    04:00 +27°C° 0.8 mm 1 mps 752 mmHg 93%
    05:00 +27°C° 0.6 mm 1 mps 752 mmHg 92%
    06:00 +27°C° 0.6 mm 1 mps 753 mmHg 91%
    07:00 +27°C° 0.6 mm 1 mps 753 mmHg 91%
    08:00 +28°C° 0.5 mm 1 mps 754 mmHg 87%
    09:00 +29°C° 0.5 mm 1 mps 754 mmHg 83%
    10:00 +30°C° 0.5 mm 1 mps 754 mmHg 79%
    11:00 +30°C° 0.3 mm 2 mps 754 mmHg 77%
    12:00 +31°C° 0.3 mm 2 mps 753 mmHg 74%
    13:00 +33°C° 0.3 mm 3 mps 752 mmHg 72%
    14:00 +31°C° 0.6 mm 3 mps 752 mmHg 74%
    15:00 +32°C° 0.6 mm 4 mps 752 mmHg 77%
    16:00 +30°C° 0.6 mm 4 mps 751 mmHg 80%
    17:00 +29°C° 1.1 mm 4 mps 752 mmHg 84%
    18:00 +28°C° 1.1 mm 3 mps 752 mmHg 88%
    19:00 +27°C° 1.1 mm 3 mps 753 mmHg 92%
    20:00 +27°C° 0.6 mm 3 mps 753 mmHg 92%
    21:00 +27°C° 0.6 mm 3 mps 754 mmHg 92%
    22:00 +27°C° 0.6 mm 2 mps 754 mmHg 92%
    23:00 +27°C° 0.7 mm 2 mps 754 mmHg 92%

    30 September, Saturday

    Time Temperature Precipitation Wind Pressure Humidity
    00:00 +27°C° 0.7 mm 2 mps 753 mmHg 92%
    01:00 +26°C° 0.7 mm 2 mps 753 mmHg 92%
    02:00 +26°C° 0.2 mm 2 mps 752 mmHg 92%
    03:00 +26°C° 0.2 mm 2 mps 752 mmHg 91%
    04:00 +26°C° 0.2 mm 2 mps 752 mmHg 91%
    05:00 +26°C° 0.1 mm 2 mps 752 mmHg 90%
    06:00 +27°C° 0.1 mm 2 mps 752 mmHg 89%
    07:00 +27°C° 0.1 mm 2 mps 753 mmHg 88%
    08:00 +28°C° 0 mm 2 mps 753 mmHg 82%
    09:00 +30°C° 0 mm 2 mps 753 mmHg 76%
    10:00 +31°C° 0 mm 2 mps 754 mmHg 70%
    11:00 +33°C° 0.3 mm 3 mps 753 mmHg 68%
    12:00 +33°C° 0.3 mm 3 mps 753 mmHg 66%
    13:00 +34°C° 0.3 mm 3 mps 752 mmHg 65%
    14:00 +33°C° 1.4 mm 4 mps 752 mmHg 69%
    15:00 +32°C° 1.4 mm 4 mps 751 mmHg 74%
    16:00 +30°C° 1.4 mm 4 mps 751 mmHg 78%
    17:00 +29°C° 1.6 mm 4 mps 751 mmHg 82%
    18:00 +28°C° 1.6 mm 3 mps 752 mmHg 87%
    19:00 +27°C° 1.6 mm 3 mps 752 mmHg 91%
    20:00 +27°C° 0.8 mm 3 mps 753 mmHg 91%
    21:00 +27°C° 0.8 mm 2 mps 753 mmHg 91%
    22:00 +27°C° 0.8 mm 2 mps 753 mmHg 91%
    23:00 +27°C° 0.8 mm 2 mps 753 mmHg 91%
    Show more